Weather History for Alamosa, CO

Change the Weather History Date:

Tuesday, August 5, 2014

  Actual Average Record
Temperature  
Mean Temperature 63 °F 64 °F  
Max Temperature 79 °F 81 °F 89 °F (1934)
Min Temperature 47 °F 48 °F 36 °F (1978)
Degree Days  
Heating Degree Days 2 2  
Month to date heating degree days 14 7  
Since 1 June heating degree days 162 220  
Since 1 July heating degree days 36 52  
Cooling Degree Days 0 1  
Month to date cooling degree days 0 5  
Year to date cooling degree days 57 43  
Since 1 June cooling degree days 57 43  
Growing Degree Days 12 (Base 50)    
Moisture  
Dew Point 49 °F    
Average Humidity 65    
Maximum Humidity 100    
Minimum Humidity 30    
Precipitation  
Precipitation 0.00 in 0.04 in 1.38 in (1936)
Month to date precipitation T 0.20  
Year to date precipitation 3.35 3.88  
Snow  
Snow 0.00 in 0.00 in 0.00 in (2002)
Month to date snowfall 0.0 0.0  
Since 1 June snowfall 0.0 0.0  
Since 1 July snowfall 0.0 0.0  
Snow Depth 0.00 in    
Sea Level Pressure  
Sea Level Pressure 30.12 in    
Wind  
Wind Speed 5 mph (NW)    
Max Wind Speed 15 mph    
Max Gust Speed 23 mph    
Visibility 10 miles    
Events      
T = Trace of Precipitation, MM = Missing Value Source: NWS Daily Summary

Daily Weather History Graph

Daily Weather History Graph

Search for Another Location

Airport:

Trip Planner

Search our weather history database for the weather conditions in past years. The results will help you decide how hot, cold, wet, or windy it might be!

Date:

Astronomy

Aug. 05, 2014 Rise Set
Actual Time 6:11 AM MDT 8:07 PM MDT
Civil Twilight 5:42 AM MDT 8:35 PM MDT
Nautical Twilight 5:07 AM MDT 9:10 PM MDT
Astronomical Twilight 4:30 AM MDT 9:47 PM MDT
Moon 3:24 PM MDT (8/5) 1:00 AM MDT (8/5)
Length of Visible Light 14h 53m
Length of Day
13h 56m
Waxing Gibbous, 68% of the Moon is Illuminated
Aug 5
Waxing Gibbous
Aug 10
Full
Aug 17
Last Quarter
Aug 25
New
Sep 2
First Quarter

Hourly Weather History & Observations

Time (MDT) Temp. Dew Point Humidity Pressure Visibility Wind Dir Wind Speed Gust Speed Precip Events Conditions
12:52 AM 53.1 °F 50.0 °F 89% 30.08 in 10.0 mi SW 3.5 mph - N/A   Clear
1:52 AM 51.1 °F 48.9 °F 92% 30.06 in 10.0 mi SE 4.6 mph - N/A   Clear
2:52 AM 50.0 °F 48.9 °F 96% 30.09 in 10.0 mi East 4.6 mph - N/A   Clear
3:52 AM 51.8 °F 50.0 °F 94% 30.33 in 10.0 mi ENE 4.6 mph - N/A   Clear
4:52 AM 48.9 °F 48.0 °F 97% 30.10 in 10.0 mi WNW 3.5 mph - N/A   Clear
5:52 AM 46.9 °F 46.0 °F 97% 30.13 in 10.0 mi West 4.6 mph - N/A   Clear
6:52 AM 48.0 °F 46.0 °F 93% 30.15 in 10.0 mi NNE 3.5 mph - N/A   Partly Cloudy
7:52 AM 54.0 °F 52.0 °F 93% 30.15 in 10.0 mi NE 4.6 mph - N/A   Partly Cloudy
8:24 AM 57.0 °F 53.1 °F 87% 30.40 in 10.0 mi NE 3.5 mph - N/A   Scattered Clouds
8:37 AM 57.9 °F 53.1 °F 84% 30.40 in 10.0 mi Variable 3.5 mph - N/A   Mostly Cloudy
8:47 AM 59.0 °F 51.8 °F 77% 30.40 in 10.0 mi Calm Calm - N/A   Mostly Cloudy
8:52 AM 60.1 °F 52.0 °F 75% 30.17 in 10.0 mi Variable 3.5 mph - N/A   Mostly Cloudy
9:52 AM 64.0 °F 50.0 °F 60% 30.14 in 10.0 mi Calm Calm - N/A   Clear
10:52 AM 68.0 °F 48.9 °F 50% 30.14 in 10.0 mi WSW 9.2 mph - N/A   Clear
11:52 AM 70.0 °F 46.9 °F 44% 30.12 in 10.0 mi Variable 5.8 mph - N/A   Partly Cloudy
12:52 PM 71.1 °F 48.0 °F 44% 30.09 in 10.0 mi Calm Calm - N/A   Scattered Clouds
1:52 PM 73.0 °F 48.9 °F 42% 30.06 in 10.0 mi Variable 3.5 mph - N/A   Clear
2:52 PM 77.0 °F 48.0 °F 36% 30.03 in 10.0 mi Variable 5.8 mph - N/A   Clear
3:52 PM 78.1 °F 48.0 °F 35% 30.01 in 10.0 mi South 10.4 mph - N/A   Clear
4:52 PM 78.1 °F 45.0 °F 31% 30.00 in 10.0 mi South 8.1 mph 19.6 mph N/A   Clear
5:52 PM 77.0 °F 48.0 °F 36% 30.01 in 10.0 mi North 10.4 mph - N/A   Partly Cloudy
6:52 PM 73.9 °F 46.0 °F 37% 30.01 in 10.0 mi NNE 9.2 mph - N/A   Clear
7:52 PM 71.1 °F 46.9 °F 42% 30.00 in 10.0 mi Calm Calm - N/A   Clear
8:52 PM 63.0 °F 46.9 °F 56% 30.03 in 10.0 mi NW 5.8 mph - N/A   Clear
9:52 PM 62.6 °F 48.2 °F 59% 30.31 in 10.0 mi NNW 6.9 mph - N/A   Clear
10:52 PM 57.9 °F 48.0 °F 70% 30.05 in 10.0 mi SSW 5.8 mph - N/A   Mostly Cloudy
11:52 PM 55.9 °F 48.0 °F 75% 30.06 in 10.0 mi WSW 5.8 mph - N/A   Partly Cloudy